Regional Weather Roundup
Issued by NWS

Home | Current Version | Previous Version | Text Only | Print | Product List | Glossary Off
Versions: 1 2 3 4 5 6 7 8 9 10 11 12 13 14 15 16 17 18 19 20 21 22 23 24 25 26 27 28 29 30 31 32 33 34 35 36 37 38 39 40 41 42 43 44 45 46 47 48 49 50

000
ASUS45 KSLC 102010
RWRUT

UTAH REGIONAL WEATHER ROUNDUP
NATIONAL WEATHER SERVICE SALT LAKE CITY UT
100 PM MST WED FEB 10 2016

UTZ001>011-023>025-102100-

NORTHERN UTAH

CITY           SKY/WX    TMP DP  RH WIND       PRES   REMARKS
BRIGHAM CITY   CLOUDY    29  27  93 CALM      30.51F
DUGWAY           N/A     28  28  99 SE5       30.49  FOG     WCI  23
HILL AFB       NOT AVBL
LOGAN          NOT AVBL
OGDEN          NOT AVBL
PROVO AIRPORT  FOG       21  19  93 CALM      30.47F VSB 1/16
SALT LAKE CITY FOG       30  28  92 N10       30.51R VSB 1/2 WCI  21
VERNAL         NOT AVBL
WENDOVER       NOT AVBL
HEBER CITY     SUNNY     32  19  59 CALM      30.40F
WEST JORDAN    CLOUDY    30  28  93 NW10      30.51R WCI  21

$$

UTZ012>022-026-027-102100-

SOUTHERN/CENTRAL UTAH

CITY           SKY/WX    TMP DP  RH WIND       PRES   REMARKS
BLANDING       SUNNY     40  28  61 CALM      30.50F
CEDAR CITY     NOT AVBL
DELTA          PTSUNNY   19  19  96 SW3       30.47S
HANKSVILLE     MOSUNNY   39  30  70 CALM      30.46F
MILFORD        NOT AVBL
MOAB/CYNLANDS  NOT AVBL
PRICE          NOT AVBL
ST GEORGE      NOT AVBL
KANAB          MOSUNNY   61  23  23 CALM      30.41F

$$

REGIONAL REPORTS     COLORADO/ARIZONA

CITY           SKY/WX    TMP DP  RH WIND       PRES   REMARKS
CRAIG, CO      CLOUDY    23  17  78 SW6       30.36F WCI  16
GRAND JUNCTION SUNNY     36  28  73 N7        30.42F WCI  30
RIFLE          SUNNY     36  16  44 CALM      30.41F
MONTROSE       SUNNY     42  22  44 N3        30.41F
CORTEZ         SUNNY     46  23  40 S3        30.42F
PAGE, AZ       MOSUNNY   48  30  49 N3        30.41F
GRAND CANYON   SUNNY     63  12  13 S7        30.43F
KINGMAN        SUNNY     65  22  19 CALM      30.32F
FLAGSTAFF      SUNNY     57   7  13 CALM      30.43F

$$

REGIONAL REPORTS    NEVADA/IDAHO/WYOMING

CITY           SKY/WX    TMP DP  RH WIND       PRES   REMARKS
LAS VEGAS, NV  MOSUNNY   65  27  23 CALM      30.28F
ELY            NOT AVBL
ELKO           SUNNY     22  14  71 CALM      30.47F
POCATELLO, ID  NOT AVBL
EVANSTON, WY   NOT AVBL
ROCK SPRINGS   NOT AVBL
KEMMERER       CLOUDY    37  21  52 W8        30.37F WCI  31

$$



USA.gov is the U.S. government's official web portal to all federal, state and local government web resources and services.